CAPE
3026 3593 3790 4165 4266 4219 4022 3787 3399 3268 2948 2502 2678 2639 2565 2603 2584 2572 2500 2557 2545 2468 2281 2223 2218 2223 2230 2177 2061 2024 1976 1914 1854 1823 1754 1725 1567 1456 1295 1232 1195 1110 1091 1100 1107 1253 1205 1131 1130 1138 1186 1188 1100 1118 1109 1123 944 1006 900 688 806 944 998 984 963 878 740 573 613 631 498 536 520 584 330 385 357 221 192 134 47 1 0 7 11
3100 3638 3889 4251 4257 4206 4053 3691 3426 3428 3101 2636 2676 2668 2596 2581 2579 2515 2507 2481 2534 2503 2316 2277 2288 2192 2192 2173 2102 2063 1996 1944 1939 1844 1729 1644 1596 1440 1313 1284 1194 1142 1184 1203 1171 1210 1095 1080 1183 1216 1252 1162 895 865 850 892 854 744 730 815 836 736 796 871 845 852 822 775 632 595 416 227 148 93 137 178 204 199 80 30 13 3 7 16 18
3431 3654 3966 4292 4368 4240 4024 3770 3589 3430 3038 2767 2723 2613 2572 2668 2591 2498 2438 2413 2508 2506 2407 2314 2313 2237 2147 2102 2043 2057 2032 2016 1938 1845 1729 1640 1634 1527 1376 1258 1249 1207 1166 1200 1244 1102 1093 1184 1267 1217 1176 1294 1236 1291 1233 1060 888 784 792 785 713 563 525 576 440 294 156 99 161 247 291 229 180 42 14 15 19 9 3 2 2 3 7 13 18
3515 3656 4081 4388 4340 4155 3994 3812 3517 3426 3078 2746 2754 2752 2688 2621 2558 2417 2428 2385 2399 2386 2370 2308 2113 2226 2152 2124 2139 2118 2126 2027 1944 1814 1778 1711 1595 1536 1440 1428 1390 1286 1267 1268 1264 1196 1130 1254 1282 1136 1194 1226 1231 1237 1159 978 905 848 803 803 578 440 414 217 65 17 3 0 0 0 14 1 23 63 60 22 2 2 3 4 6 10 12 17 19
3546 3766 4204 4355 4227 4121 4022 3876 3659 3571 3197 2863 2866 2818 2717 2605 2522 2578 2474 2393 2409 2445 2400 2246 2104 2266 2212 2147 2158 2192 2165 2073 1939 1870 1725 1659 1661 1506 1484 1535 1544 1561 1505 1445 1426 1246 1244 1388 1346 1261 1180 1209 1180 1281 1241 1218 1169 1068 905 817 759 633 632 579 430 17 0 0 0 0 0 0 10 21 19 2 0 1 6 8 8 14 19 23 21
3552 3933 4216 4266 4149 4056 3966 3894 3732 3508 3256 2913 2810 2738 2651 2608 2545 2561 2540 2462 2462 2332 2472 2345 2254 2234 2248 2266 2221 2175 2195 2099 1979 1899 1760 1662 1723 1452 1428 1510 1593 1568 1572 1465 1370 1248 1181 1448 1322 1276 1292 1312 1366 1298 1240 1040 1031 1002 1030 935 783 744 692 788 139 17 0 0 0 0 0 0 6 17 26 19 8 18 20 20 19 25 34 17 25
3778 3976 4104 4169 4049 4006 3960 3900 3740 3466 3326 2892 2838 2793 2680 2776 2658 2747 2570 2537 2492 2403 2291 2358 2314 2329 2305 2314 2281 2274 2256 2113 2052 1931 1862 1573 1547 1459 1428 1416 1590 1591 1556 1470 1350 1267 1208 1416 1236 1304 1268 1348 1383 1311 1154 1073 1078 1156 1206 1060 208 356 363 78 0 0 0 0 0 0 0 0 0 2 15 14 21 31 30 31 17 8 29 26 24
3680 3822 3991 3940 3934 3982 4004 3980 3892 3716 3560 2904 2932 2834 2803 2913 2707 2624 2578 2540 2401 2390 2374 2310 2359 2356 2358 2332 2315 2348 2318 2177 2066 1974 1898 1644 1721 1642 1405 1358 1424 1607 1434 1388 1267 1253 1179 1338 1384 1381 1373 1475 1380 1142 1176 1204 1211 1164 391 171 28 0 0 0 0 0 0 0 0 1 3 4 0 0 31 40 34 38 13 5 32 36 18 18 44
3457 3672 3866 3915 3898 3972 3952 3919 3864 3834 3589 3192 3097 2939 2833 2817 2760 2731 2616 2499 2438 2450 2410 2327 2378 2384 2384 2381 2403 2397 2416 2255 2082 2013 1952 1795 1653 1534 1474 1301 1345 1504 1622 1385 1326 1335 1309 1314 1378 1322 1426 1437 1190 1202 1247 1239 1359 295 252 245 97 1 0 0 0 0 0 0 0 0 0 0 2 5 18 13 11 22 27 24 27 18 3 23 24
3228 3492 3749 3826 3880 4127 3953 3894 3831 3813 3631 3312 3245 3018 2902 2859 2836 2747 2650 2540 2534 2463 2393 2348 2284 2459 2444 2480 2449 2420 2364 2304 2216 2153 2084 2009 1843 1755 1617 1422 1352 1398 1630 1586 1401 1408 1434 1366 1430 1447 1471 1323 1151 1128 1258 1384 1205 80 80 58 25 0 0 0 0 0 0 0 0 0 2 4 2 4 20 28 28 34 18 26 19 14 19 23 18
3070 3401 3663 3788 3951 4113 3896 3831 3838 3749 3582 3518 3267 3087 2881 2927 2913 2851 2682 2600 2578 2469 2437 2396 2479 2525 2541 2512 2478 2439 2417 2420 2400 2266 2067 1927 1849 1760 1726 1662 1477 1339 1457 1656 1559 1524 1510 1409 1497 1522 1415 1172 1123 1174 1286 1566 1444 204 138 89 0 0 0 0 0 0 0 0 0 0 17 20 2 3 28 30 30 35 42 28 15 28 10 14 21
3113 3460 3687 3840 4086 3999 3848 3801 3817 3734 3680 3505 3270 3072 3034 2969 2955 2898 2748 2700 2541 2548 2549 2539 2506 2388 2590 2544 2517 2474 2466 2513 2410 2259 2102 2007 2052 2061 1995 1893 1770 1519 1435 1569 1653 1704 1637 1566 1525 1400 1267 1041 1059 1261 1350 1608 1157 49 40 5 0 0 0 0 0 0 0 0 0 8 11 11 12 17 3 8 27 25 9 9 31 9 12 21 28
3260 3570 3768 3884 3975 3957 3872 3823 3777 3766 3718 3505 3199 3117 3106 3038 2957 2866 2816 2694 2622 2606 2614 2594 2537 2550 2535 2722 2628 2581 2474 2503 2416 2299 2172 2161 2127 2020 1924 1896 1865 1802 1760 1651 1802 1712 1576 1605 1410 1338 1140 938 1024 1198 1421 1476 1246 106 0 0 0 0 0 0 0 0 0 0 1 5 7 9 13 23 18 29 25 9 18 30 15 12 26 36 37
3344 3640 3790 3861 3848 4132 3933 3813 3741 3752 3688 3531 3350 3250 3150 3118 3089 2961 2861 2723 2701 2680 2661 2703 2674 2727 2727 2748 2772 2683 2597 2527 2521 2416 2328 2232 2078 2074 2044 2038 2011 1972 1885 1770 1842 1789 1619 1483 1392 1275 1171 961 1071 1142 1316 1436 1511 417 0 0 0 0 0 0 0 0 0 0 0 0 6 15 14 17 37 40 23 18 19 23 16 28 32 33 41
3339 3636 3767 3782 3887 3922 4059 3885 3783 3732 3613 3423 3241 3194 3166 3083 3079 2985 2843 2804 2747 2691 2691 2664 2738 2778 2768 2779 2791 2748 2676 2652 2586 2543 2474 2316 2274 2226 2180 2102 2034 2018 1873 1829 1806 1750 1582 1525 1408 1314 1062 936 998 1104 1224 1336 1357 1371 7 0 0 0 0 0 0 0 0 0 0 0 9 16 18 12 15 18 12 10 19 25 21 26 32 26 20
3300 3577 3692 3712 3839 3892 3864 4001 3863 3777 3572 3402 3204 3116 3015 2926 2898 2895 2837 2765 2690 2594 2644 2724 2796 2813 2848 2869 2840 2796 2689 2717 2580 2530 2506 2450 2397 2293 2330 2229 2107 1972 1887 1816 1714 1677 1692 1532 1489 1336 1000 872 1014 962 1199 1220 1221 1380 530 0 0 0 0 0 0 0 0 0 0 2 8 18 17 16 4 3 17 17 16 17 23 16 15 20 18
3446 3558 3595 3679 3752 3864 3778 3744 3853 3771 3672 3458 3244 3081 2925 2837 2778 2774 2789 2751 2654 2605 2631 2750 2825 2907 2900 2909 2865 2881 2833 2753 2732 2598 2534 2455 2383 2278 2284 2309 2061 1884 1848 1718 1730 1713 1680 1654 1512 1376 1059 913 897 1201 1090 1093 1151 1261 205 0 0 0 0 0 0 0 0 0 0 4 10 17 27 4 8 30 27 16 16 24 22 21 23 16 3
3432 3494 3597 3690 3703 3720 3718 3734 3807 3635 3504 3559 3332 3095 2937 2820 2775 2768 2797 2756 2679 2624 2650 2792 2861 2899 2812 2779 2827 2781 2793 2692 2622 2570 2544 2486 2464 2305 2219 2171 1998 1871 1765 1688 1623 1680 1660 1538 1527 1347 1174 968 914 1036 966 1083 1254 1354 4 0 0 0 0 0 0 0 0 0 0 2 4 9 20 22 18 24 17 12 16 14 6 11 13 14 17
3328 3399 3536 3580 3557 3552 3634 3692 3606 3437 3407 3227 3155 3083 2938 2841 2769 2814 2810 2752 2676 2619 2637 2784 2788 2783 2801 2804 2729 2646 2845 2686 2648 2543 2543 2529 2394 2283 2184 2148 2041 1878 1744 1745 1758 1671 1550 1612 1503 1412 1254 1183 1102 1045 1034 999 1389 419 12 0 0 0 0 0 0 0 0 0 0 0 3 0 2 26 28 21 18 10 11 14 12 23 11 2 4
3250 3294 3332 3354 3346 3365 3455 3570 3449 3352 3271 3129 2975 2897 2908 2764 2727 2836 2837 2806 2692 2683 2710 2748 2758 2696 2717 2692 2766 2788 2665 2624 2602 2569 2414 2443 2359 2157 2127 2072 1985 1892 1771 1670 1662 1648 1576 1585 1512 1452 1431 1366 1277 1068 1130 993 1331 507 13 1 0 0 0 0 0 0 0 0 0 0 6 7 14 22 19 23 8 4 23 17 15 14 8 4 19
3091 3153 3134 3093 3162 3167 3274 3433 3354 3274 3144 3036 2875 2742 2822 2762 2711 2768 2772 2785 2725 2727 2739 2681 2568 2618 2617 2662 2686 2480 2492 2486 2384 2388 2292 2330 2283 2171 2245 2108 1941 1806 1783 1703 1630 1660 1555 1614 1488 1522 1518 1458 1359 1109 1124 1100 1208 699 0 0 0 0 0 0 0 0 0 0 1 0 4 7 8 11 11 9 14 15 11 7 15 12 15 12 12
2895 2877 2848 2915 2976 3056 3191 3276 3261 3190 3054 2924 2786 2687 2799 2588 2476 2592 2628 2507 2545 2514 2564 2326 2630 2378 2635 2666 2446 2463 2414 2357 2377 2281 2348 2167 2084 2258 2035 2182 1914 1846 1728 1709 1618 1671 1570 1617 1574 1547 1617 1515 1329 995 1094 1361 1269 212 0 0 0 0 0 0 0 0 0 0 3 2 2 3 10 7 2 6 13 15 18 18 14 19 18 16 11
2764 2594 2560 2676 2713 2836 2924 3048 3051 3024 2964 2823 2695 2631 2603 2337 2328 2369 2286 2331 2357 2596 2292 2200 2312 2324 2478 2518 2424 2363 2366 2304 2281 2292 2181 2141 2132 2188 2038 2034 2008 1710 1732 1612 1627 1632 1596 1692 1660 1636 1602 1544 1046 716 687 155 1076 689 0 0 0 0 0 0 0 0 0 0 0 4 7 7 4 4 10 6 14 14 12 12 13 17 17 10 12
2756 2536 2384 2510 2532 2656 2694 2746 2788 2742 2755 2679 2615 2585 2458 2321 2214 2183 2011 2088 2180 2256 2147 2067 2027 2251 2482 2454 2349 2273 2269 2226 2241 2298 2198 2020 2019 2088 1973 1988 1950 1862 1694 1500 1571 1608 1646 1766 1702 1728 1553 1253 689 566 486 203 461 37 0 0 0 0 0 0 0 0 0 0 0 0 1 3 0 0 1 4 6 15 13 16 19 15 13 11 13
2585 2356 2214 2405 2398 2436 2477 2528 2614 2609 2619 2551 2466 2458 2405 2331 2191 2062 1941 2052 2012 2040 1930 1947 1968 2196 2427 2368 2221 2136 2125 2048 2192 2126 2052 2059 2019 1968 1812 1817 1631 1590 1555 1445 1440 1419 1591 1632 1636 1530 1355 1065 911 907 573 476 514 22 0 0 0 0 0 0 0 0 0 0 0 0 0 1 0 0 0 4 4 5 7 8 5 8 11 11 12
2122 2300 2242 2226 2230 2252 2229 2409 2517 2507 2472 2450 2393 2358 2354 2339 2160 2048 2049 2028 1852 1925 1958 1956 2044 2125 2331 2275 2058 1936 1931 1804 1959 2074 1994 1988 1924 1911 1807 1802 1551 1567 1407 1425 1385 1418 1502 1539 1565 1372 1211 1138 1101 1109 716 587 564 204 0 0 0 0 0 0 0 0 0 0 0 0 0 1 1 0 0 2 4 4 4 5 7 8 8 7 7
2085 2284 2192 2116 2158 2200 2046 2156 2168 2172 2200 2180 2205 2208 2186 2188 2108 1994 1946 1826 1703 1844 1872 1925 1991 2036 2205 2189 1893 1767 1731 1589 1801 1894 1926 1854 1821 1817 1731 1690 1521 1470 1409 1374 1375 1404 1475 1411 1423 1279 1139 1092 1108 1063 1010 762 492 176 0 0 0 0 0 0 0 0 0 0 0 0 0 0 2 6 2 0 0 2 1 0 0 4 5 5 5
1866 2142 2164 2029 2177 2115 1992 2030 1987 1893 1922 1899 2124 2096 1994 1955 1903 1719 1729 1717 1613 1705 1677 1785 1881 1915 2067 2099 1814 1670 1620 1427 1652 1759 1882 1757 1672 1683 1623 1596 1487 1434 1356 1396 1354 1358 1363 1379 1323 1252 1059 1079 1156 1080 1054 863 397 3 0 0 0 0 0 0 0 0 0 0 0 0 0 0 0 1 2 0 0 0 0 0 1 1 3 3 2
1841 1735 1909 2052 2074 2169 2092 2063 1991 1886 1849 1682 1736 1802 1855 1816 1674 1616 1596 1571 1538 1587 1551 1562 1699 1811 1942 2018 1842 1647 1545 1401 1515 1712 1767 1608 1446 1484 1555 1516 1454 1421 1360 1380 1292 1206 1236 1222 1213 1134 1169 1206 1262 1082 983 842 649 26 0 0 0 0 0 0 0 0 0 0 0 0 0 0 0 0 0 0 0 0 1 1 0 1 0 0 0
1871 1796 1660 1815 1916 2176 2197 2124 1993 1890 1821 1699 1639 1571 1603 1592 1608 1558 1502 1473 1451 1484 1444 1360 1446 1641 1789 1892 1812 1693 1576 1510 1438 1668 1734 1564 1273 1241 1396 1403 1391 1391 1372 1274 1209 1173 1126 1054 1051 1114 1214 1236 1299 1182 887 839 714 196 168 0 0 0 0 0 0 0 0 0 0 0 0 0 0 0 0 2 2 0 0 1 0 2 2 1 0
1854 1740 1601 1580 1779 1899 2192 2161 2070 1958 1837 1767 1604 1644 1549 1470 1439 1473 1436 1338 1244 1344 1311 1159 1154 1350 1555 1756 1713 1644 1644 1662 1424 1566 1725 1609 1184 981 1038 1140 1229 1268 1372 1205 1045 1106 996 982 954 867 938 1131 1346 1272 919 692 614 263 237 200 146 0 0 0 0 0 0 0 0 0 0 0 0 0 2 1 0 0 0 0 1 0 0 0 0
1643 1616 1561 1511 1448 1640 1862 2131 2078 2012 1922 1657 1604 1555 1392 1374 1280 1344 1323 1191 1086 1070 1089 1028 992 1004 1189 1474 1552 1528 1533 1618 1687 1468 1615 1635 1277 803 732 819 979 1087 1213 1232 974 1017 751 888 928 803 782 1052 1378 1386 1107 527 488 411 297 252 195 100 0 0 0 0 0 0 0 0 0 0 0 0 0 0 0 0 1 0 0 0 1 0 1
1632 1649 1627 1650 1591 1511 1444 1671 1986 2027 1933 1604 1429 1394 1244 1244 1279 1234 1090 993 990 940 908 928 967 954 946 1108 1364 1422 1453 1500 1594 1638 1478 1572 1499 871 532 547 714 879 978 1020 1040 910 595 599 874 844 823 1048 1340 1337 1196 583 552 504 477 410 249 63 0 0 0 0 0 0 0 0 0 0 0 0 0 0 0 0 0 0 0 0 0 0 0
1428 1421 1459 1517 1454 1407 1340 1263 1340 1524 1502 1395 1450 1518 1498 1237 1212 1285 1159 936 888 886 846 818 881 948 963 1026 1132 1315 1376 1463 1484 1582 1510 1454 1465 1356 658 354 490 659 838 703 990 740 636 298 682 931 876 992 1203 1220 1141 832 653 578 590 591 280 94 0 0 0 0 0 0 0 0 0 0 0 0 0 0 0 0 0 0 0 0 0 0 0
1624 1592 1592 1577 1592 1487 1398 1337 1262 1231 1223 1293 1472 1515 1478 1545 1201 1080 1118 1010 908 811 800 872 888 904 920 985 1050 1197 1311 1331 1475 1503 1493 1352 1354 1356 1171 536 343 516 758 518 706 651 610 280 200 703 825 914 1050 1111 1002 660 700 642 659 509 259 0 0 0 0 0 0 0 0 0 0 0 0 0 0 0 0 0 0 0 0 0 0 0 0
1936 1874 2002 1984 2066 2072 1957 1774 1479 1311 1268 1265 1411 1341 1310 1530 1206 977 949 848 810 855 764 832 918 964 953 1006 1074 1114 1203 1158 1092 1243 1415 1359 1239 1266 1247 999 453 459 690 720 396 606 529 428 38 284 586 541 634 840 610 671 710 737 694 0 0 0 0 0 0 0 0 0 0 0 0 0 0 0 0 0 0 0 0 0 0 0 0 0 0
1795 1772 1760 1614 1477 1451 1279 1293 1304 1173 1213 1188 1159 1136 1232 1422 1208 1058 962 903 821 715 785 866 911 909 941 994 1031 1070 1109 1121 1071 1080 1092 1147 1165 1148 1178 1112 694 455 614 722 526 363 502 460 283 231 221 28 146 482 602 685 743 753 546 0 0 0 7 0 0 0 0 0 0 0 0 0 0 0 0 0 0 0 0 0 0 0 0 0 0
1521 1555 1520 1460 1437 1276 1130 1144 1164 1091 1087 1156 1151 1207 1198 1358 1287 1030 984 998 958 834 642 778 973 926 868 932 974 897 884 928 1006 985 804 849 860 933 964 1071 873 540 490 561 581 441 327 384 342 230 251 26 9 428 674 709 778 722 503 168 0 82 257 0 0 0 0 0 0 0 0 0 0 0 0 0 0 0 0 0 0 0 0 0 0
1532 1544 1666 1788 1873 1672 1561 1209 938 1100 1083 1149 1245 1254 1259 1325 1234 1046 968 1002 964 823 694 632 830 936 889 892 970 911 813 797 861 798 772 700 585 572 774 781 805 762 509 458 401 462 301 181 240 284 251 17 398 509 585 716 746 634 586 446 0 17 267 0 0 0 0 0 0 0 0 0 0 0 0 0 0 0 0 0 0 0 0 0 0
1515 1478 1536 1699 1715 1516 1472 1693 1192 959 1288 1406 1329 1357 1293 1114 1185 1144 1020 1059 1007 914 762 607 646 752 869 841 801 781 730 722 692 616 535 523 512 480 509 394 610 710 646 500 430 421 387 282 279 356 224 0 1 200 355 610 645 594 602 528 369 376 79 0 0 0 0 0 0 0 0 0 0 0 0 0 0 0 0 0 0 0 0 0 0
1256 1259 1206 1486 1478 1396 1331 1521 1572 1211 1360 1456 1418 1271 1370 1245 1104 1152 1185 1092 990 885 864 757 651 588 648 801 844 822 761 659 557 503 580 614 428 506 431 360 399 384 591 614 498 364 383 411 354 306 196 5 4 0 329 587 628 612 604 577 477 405 324 193 0 0 0 0 0 0 0 0 0 0 0 0 0 0 0 0 0 0 0 0 0
119 126 278 873 1257 1364 1376 1511 1602 1642 1465 1414 1387 1330 1271 1410 1204 1062 1104 1167 1015 962 940 954 854 683 698 696 760 780 786 792 776 576 574 533 445 424 441 453 441 370 311 729 678 520 512 443 370 357 278 270 13 0 20 254 369 491 540 511 463 435 373 258 132 0 0 0 0 0 0 0 0 0 0 0 0 0 0 0 0 0 0 0 0
67 26 59 77 364 804 1128 1535 1634 1734 1804 1566 1394 1376 1230 1076 1194 1178 1203 1075 1014 940 936 994 979 919 836 749 788 754 822 838 791 732 696 623 579 557 553 497 438 434 344 489 767 567 498 471 400 378 310 394 359 128 32 87 91 378 442 375 390 473 488 366 2 0 0 0 0 0 0 0 0 0 0 0 0 0 0 0 0 0 0 0 0
119 11 34 40 174 214 206 1007 1553 1675 1807 1797 1480 1397 1301 1122 888 818 992 1070 942 988 930 872 922 974 899 763 775 722 752 787 830 811 780 658 603 598 593 540 542 444 436 359 563 549 514 419 404 384 346 409 339 334 130 272 270 374 380 364 368 43 370 414 356 0 0 0 0 0 0 0 0 0 0 0 0 0 0 0 0 0 0 0 0
0 31 9 10 120 76 55 164 1112 1578 1790 1796 1364 964 1226 1242 1113 1028 768 843 937 707 755 659 766 804 855 823 770 735 734 800 889 887 864 801 685 582 553 590 571 584 578 524 646 592 576 508 428 329 284 317 337 313 271 239 299 320 214 263 401 194 11 0 0 10 0 0 0 0 0 0 0 0 0 0 0 0 0 0 0 0 0 0 0
0 0 0 0 33 6 39 43 188 1322 1715 1804 1530 1390 1121 1282 1177 851 502 896 756 688 675 710 734 729 765 832 805 742 785 874 892 872 843 837 787 670 637 600 558 540 697 789 809 761 615 569 431 344 302 265 331 286 280 228 268 380 156 142 131 115 35 0 29 88 0 0 0 0 0 0 0 0 0 0 0 0 0 0 0 0 0 0 0
0 0 0 0 0 0 1 41 29 278 1174 1732 1906 1847 1514 1365 1417 1244 708 674 599 672 569 496 578 675 747 853 851 790 758 760 866 955 940 837 752 720 785 793 756 773 862 929 940 888 767 709 506 353 301 261 217 352 270 240 210 323 349 308 2 0 0 0 16 0 28 0 0 0 0 0 0 0 0 0 0 0 0 0 0 0 0 0 0
0 0 0 0 0 0 0 0 3 41 871 1677 1864 1806 1532 1480 1438 1183 757 664 509 617 628 721 506 501 709 848 790 734 759 773 854 981 1088 1052 835 688 718 850 954 992 1031 1070 1073 1068 990 862 678 410 254 230 223 240 298 227 79 127 309 170 3 0 0 0 0 2 0 0 5 0 0 0 0 0 0 0 0 0 0 0 0 0 0 0 0
0 0 0 0 0 0 0 0 0 0 241 1188 1414 1456 1410 1376 1423 1264 1205 626 513 803 806 504 760 969 935 816 762 798 811 797 829 967 1143 1217 1090 888 804 916 1088 1319 1382 1301 1179 1109 1020 920 773 574 442 316 200 34 5 0 14 71 31 6 208 142 0 0 0 0 0 0 0 14 31 0 0 0 0 0 0 0 0 0 0 0 0 0 0
0 0 0 0 0 0 0 0 0 0 31 564 1058 1116 1077 1017 1126 1183 1258 1078 828 747 787 625 671 980 1033 896 772 780 793 778 795 896 1080 1239 1243 1044 959 1134 1288 1418 1629 1589 1399 1214 1061 924 812 708 558 548 488 32 13 0 4 9 36 102 57 19 116 48 0 0 0 0 0 0 5 9 1 0 0 0 0 0 0 0 0 0 0 0 0
0 0 0 0 0 0 0 0 0 0 0 167 488 744 843 855 960 1115 1228 1218 1123 986 752 627 572 678 1011 961 877 816 785 778 773 826 924 1092 1207 1112 1042 1099 1444 1621 1635 1587 1503 1390 1234 1066 886 793 686 574 527 551 512 357 0 0 243 314 286 222 214 0 5 0 0 0 0 0 0 10 24 10 0 0 0 0 0 0 0 0 0 0 0
Wind_Speed
6 7 7 13 15 16 17 18 20 23 24 23 23 21 21 21 21 22 22 22 23 23 24 25 25 25 23 23 24 23 24 25 26 27 27 27 27 28 28 28 28 28 29 28 28 28 27 26 25 25 25 24 23 22 21 20 20 20 20 20 19 19 19 19 18 18 17 16 16 15 15 17 19 20 20 20 19 19 19 19 nan nan nan nan nan
11 7 9 12 17 17 18 20 21 22 23 25 26 23 22 21 20 20 22 23 23 24 24 26 26 24 24 23 23 23 24 25 25 26 26 27 27 27 28 28 29 29 30 29 28 27 27 26 25 25 25 25 24 23 22 21 20 21 22 22 21 20 19 18 18 18 18 18 18 18 18 19 19 nan 20 21 21 19 nan nan nan nan nan nan nan
18 15 13 15 19 20 20 21 22 22 23 25 27 26 23 22 21 20 21 22 23 24 25 26 26 24 24 24 23 23 24 24 24 25 26 26 27 27 28 29 29 30 30 30 28 27 26 25 25 25 26 25 24 23 22 21 21 23 23 22 22 20 19 18 18 18 17 nan 18 18 17 20 21 nan nan nan nan nan nan nan nan nan nan nan nan
21 16 15 18 21 21 22 22 22 22 22 24 27 28 26 24 22 21 21 21 24 23 25 26 26 25 24 24 23 23 22 23 23 24 24 25 26 27 29 29 30 31 31 30 29 27 26 25 24 25 26 25 23 23 22 22 22 22 24 22 20 21 21 20 nan nan nan nan nan nan nan nan nan nan nan nan nan nan nan nan nan nan nan nan nan
23 19 18 19 20 22 24 23 23 22 22 23 26 27 27 26 25 22 21 21 22 23 24 25 26 25 25 24 24 23 23 22 22 23 23 24 24 27 28 29 30 31 31 30 29 27 25 24 24 25 25 24 23 21 21 20 20 20 19 20 19 18 16 14 14 nan nan nan nan nan nan nan nan nan nan nan nan nan nan nan nan nan nan nan nan
21 20 19 19 20 22 26 25 24 24 23 23 25 26 26 26 24 23 21 21 21 22 23 26 27 26 26 25 24 24 23 22 22 22 22 23 23 26 28 29 30 30 31 30 29 27 24 22 23 24 24 23 22 21 19 18 16 15 15 15 14 13 16 18 19 nan nan nan nan nan nan nan nan nan nan nan nan nan nan nan nan nan nan nan nan
22 18 18 21 19 21 27 26 25 26 25 23 25 25 25 25 24 23 22 21 20 22 24 26 27 27 26 25 24 24 23 23 23 23 22 23 23 25 26 28 29 30 30 30 28 26 24 22 22 23 23 22 21 20 18 16 13 11 12 18 23 24 23 nan nan nan nan nan nan nan nan nan nan nan nan nan nan nan nan nan nan nan nan nan nan
18 17 17 19 18 22 26 26 26 27 26 25 26 27 26 25 24 23 22 21 20 21 23 25 26 26 26 25 24 24 23 23 24 23 23 22 21 22 25 26 29 30 30 29 28 26 23 21 21 22 22 22 20 18 17 14 12 16 25 26 nan nan nan nan nan nan nan nan nan nan nan nan nan nan nan nan nan nan nan nan nan nan nan nan nan
16 17 16 18 18 25 25 25 25 26 27 26 27 27 27 26 25 24 23 22 20 21 22 23 24 24 25 24 24 23 22 23 24 24 23 23 22 21 22 25 28 30 29 29 27 25 23 21 20 21 22 21 19 17 16 15 17 24 24 24 nan nan nan nan nan nan nan nan nan nan nan nan nan nan nan nan nan nan nan nan nan nan nan nan nan
17 16 16 17 19 25 26 26 26 27 28 27 27 28 28 28 26 25 24 23 22 21 20 22 23 23 23 23 23 22 22 22 24 24 23 22 22 21 21 22 26 29 30 28 27 24 22 20 19 20 21 20 18 17 15 15 21 nan nan nan nan nan nan nan nan nan nan nan nan nan nan nan nan nan nan nan nan nan nan nan nan nan nan nan nan
20 18 17 18 21 26 27 27 28 28 28 28 27 28 28 28 27 26 24 24 22 21 20 20 21 22 22 22 22 22 23 23 24 24 24 23 22 21 21 22 23 27 28 28 27 24 21 20 19 20 21 19 17 16 16 16 20 25 24 nan nan nan nan nan nan nan nan nan nan nan nan nan nan nan nan nan nan nan nan nan nan nan nan nan nan
22 20 19 18 23 25 25 27 28 29 29 28 28 27 27 27 28 26 25 23 22 21 20 20 20 22 21 22 22 23 23 24 24 25 24 24 23 22 22 23 23 24 26 27 27 24 21 19 18 19 20 19 17 16 16 16 21 nan nan nan nan nan nan nan nan nan nan nan nan nan nan nan nan nan nan nan nan nan nan nan nan nan nan nan nan
23 20 20 20 22 25 26 26 27 28 30 30 29 28 28 28 27 26 24 22 22 20 20 20 20 21 21 21 21 22 23 23 23 24 24 24 24 23 23 24 24 24 24 26 26 23 20 18 18 19 20 19 17 16 16 17 21 25 nan nan nan nan nan nan nan nan nan nan nan nan nan nan nan nan nan nan nan nan nan nan nan nan nan nan nan
22 20 20 21 21 28 29 29 28 29 31 31 30 29 29 28 27 26 23 21 21 20 19 19 20 20 20 20 21 20 20 22 23 23 24 24 24 24 24 24 25 26 25 26 25 22 19 17 17 18 19 19 18 16 16 17 19 23 nan nan nan nan nan nan nan nan nan nan nan nan nan nan nan nan nan nan nan nan nan nan nan nan nan nan nan
23 24 23 22 22 24 31 30 29 29 31 32 32 30 30 29 27 26 23 21 21 20 19 19 20 20 21 21 21 21 20 21 22 23 24 24 24 24 24 25 25 26 26 26 25 22 19 17 17 17 18 18 17 16 15 17 18 19 nan nan nan nan nan nan nan nan nan nan nan nan nan nan nan nan nan nan nan nan nan nan nan nan nan nan nan
24 22 23 22 21 21 21 25 27 29 31 33 34 32 30 29 28 26 24 22 21 21 20 19 20 20 20 20 21 21 22 21 22 23 23 25 25 25 24 25 25 25 26 26 25 22 19 17 16 16 16 17 17 16 16 18 17 16 23 nan nan nan nan nan nan nan nan nan nan nan nan nan nan nan nan nan nan nan nan nan nan nan nan nan nan
24 21 20 21 22 21 19 17 19 27 29 33 34 33 31 29 28 27 25 23 22 22 21 20 19 19 19 19 20 20 21 21 22 23 24 24 25 25 24 24 25 25 25 26 26 22 17 16 15 16 15 15 16 16 17 18 17 17 27 nan nan nan nan nan nan nan nan nan nan nan nan nan nan nan nan nan nan nan nan nan nan nan nan nan nan
21 19 18 20 22 22 21 19 20 23 25 30 32 32 31 29 28 28 27 25 23 23 21 20 19 19 19 19 19 20 20 20 21 22 23 24 24 24 24 24 24 24 24 25 25 22 17 15 14 14 15 14 15 16 17 18 16 18 nan nan nan nan nan nan nan nan nan nan nan nan nan nan nan nan nan nan nan nan nan nan nan nan nan nan nan
18 18 20 22 23 23 22 22 22 23 25 27 26 27 30 29 28 28 28 27 24 23 22 21 19 19 19 19 19 19 19 19 20 21 22 24 25 24 24 23 24 23 23 24 24 22 17 14 13 13 14 14 15 16 16 18 16 23 nan nan nan nan nan nan nan nan nan nan nan nan nan nan nan nan nan nan nan nan nan nan nan nan nan nan nan
18 22 23 23 25 24 23 22 23 23 22 26 26 25 27 29 29 29 29 28 27 25 23 22 20 19 19 20 20 18 18 17 20 19 22 24 25 23 24 23 23 23 22 23 23 21 17 14 12 13 14 14 15 15 16 18 18 22 nan nan nan nan nan nan nan nan nan nan nan nan nan nan nan nan nan nan nan nan nan nan nan nan nan nan nan
19 22 24 23 24 25 25 24 23 23 22 25 26 25 26 30 29 30 30 29 28 26 25 23 21 19 19 19 19 17 16 15 17 17 21 20 23 24 24 24 23 22 21 22 22 20 17 13 11 12 14 14 14 14 15 18 19 22 nan nan nan nan nan nan nan nan nan nan nan nan nan nan nan nan nan nan nan nan nan nan nan nan nan nan nan
22 21 21 24 24 24 26 26 26 23 23 26 26 26 27 30 29 28 28 27 27 26 24 22 21 19 18 18 18 17 17 16 17 18 18 19 21 24 24 23 22 21 20 20 21 19 16 12 11 12 13 13 13 11 13 16 20 24 nan nan nan nan nan nan nan nan nan nan nan nan nan nan nan nan nan nan nan nan nan nan nan nan nan nan nan
24 22 22 24 25 25 25 26 27 25 24 28 30 29 28 29 31 30 28 28 27 26 25 23 23 21 19 20 20 18 18 17 16 16 17 18 19 23 23 22 22 21 19 20 19 18 16 12 10 11 12 13 12 11 12 13 14 21 nan nan nan nan nan nan nan nan nan nan nan nan nan nan nan nan nan nan nan nan nan nan nan nan nan nan nan
26 24 25 26 27 27 27 26 26 26 26 27 30 30 27 26 28 30 29 29 28 27 26 25 24 22 20 21 21 19 18 17 16 17 18 17 18 21 21 21 21 20 19 18 18 17 15 12 10 11 12 12 12 12 13 12 13 nan nan nan nan nan nan nan nan nan nan nan nan nan nan nan nan nan nan nan nan nan nan nan nan nan nan nan nan
26 26 26 28 28 29 30 29 28 26 25 25 26 27 27 27 28 30 32 31 30 30 28 26 25 24 22 21 20 19 19 16 14 15 18 19 19 20 20 19 19 17 17 18 18 15 14 11 11 11 11 11 11 11 12 14 13 nan nan nan nan nan nan nan nan nan nan nan nan nan nan nan nan nan nan nan nan nan nan nan nan nan nan nan nan
28 27 25 27 29 30 32 31 30 28 26 25 25 26 28 29 30 30 32 32 33 32 30 28 26 24 23 21 20 20 18 16 14 16 18 20 20 20 19 19 18 16 16 17 16 15 13 11 11 11 10 10 10 11 11 13 14 13 nan nan nan nan nan nan nan nan nan nan nan nan nan nan nan nan nan nan nan nan nan nan nan nan nan nan nan
30 27 28 30 32 33 33 33 33 32 29 29 30 31 30 30 32 31 32 31 33 35 33 31 27 25 23 21 20 19 18 16 14 16 18 20 21 20 19 18 17 14 14 15 14 14 12 11 11 11 10 10 10 10 12 14 15 14 nan nan nan nan nan nan nan nan nan nan nan nan nan nan nan nan nan nan nan nan nan nan nan nan nan nan nan
32 31 33 33 34 35 36 37 36 37 34 34 35 33 32 30 30 30 31 31 33 34 34 33 30 26 24 21 21 19 17 16 15 17 18 21 20 19 18 17 15 12 13 13 14 13 11 11 11 12 11 10 10 10 12 14 16 nan nan nan nan nan nan nan nan nan nan nan nan nan nan nan nan nan nan nan nan nan nan nan nan nan nan nan nan
33 33 35 36 34 33 35 37 37 37 33 34 37 33 31 31 31 31 30 30 32 33 35 35 31 28 25 22 21 19 17 17 17 18 20 19 20 19 17 15 14 13 13 11 13 12 11 11 11 12 11 10 9 10 11 13 16 nan nan nan nan nan nan nan nan nan nan nan nan nan nan nan nan nan nan nan nan nan nan nan nan nan nan nan nan
34 35 36 38 38 36 34 34 36 33 31 32 32 35 36 33 32 32 31 32 32 34 34 34 32 29 25 22 21 19 17 17 18 20 20 19 20 20 17 15 14 14 14 12 12 12 11 11 11 12 12 10 10 10 11 12 15 15 14 nan nan nan nan nan nan nan nan nan nan nan nan nan nan nan nan nan nan nan nan nan nan nan nan nan nan
36 35 35 38 39 39 35 34 34 32 32 32 31 33 38 38 36 33 33 35 36 35 32 32 32 30 26 23 21 20 17 17 18 19 20 20 20 21 18 15 14 14 14 13 13 12 11 11 12 12 12 11 10 11 11 10 12 15 15 12 8 nan nan nan nan nan nan nan nan nan nan nan nan nan nan nan nan nan nan nan nan nan nan nan nan
37 33 33 35 38 38 36 35 35 32 33 31 31 34 37 38 37 35 36 38 40 37 31 29 29 30 29 25 23 21 19 17 17 18 19 20 21 21 19 17 14 14 14 14 13 12 11 10 11 12 12 13 11 11 11 11 10 13 16 14 10 nan nan nan nan nan nan nan nan nan nan nan nan nan nan nan nan nan nan nan nan nan nan nan nan
34 36 35 36 37 37 36 37 36 32 32 32 32 34 36 38 38 35 36 37 40 41 35 28 28 29 28 26 24 22 21 19 17 17 19 20 22 22 20 17 16 15 15 14 13 12 11 11 11 13 13 13 14 12 11 10 9 10 16 16 12 nan nan nan nan nan nan nan nan nan nan nan nan nan nan nan nan nan nan nan nan nan nan nan nan
38 36 37 34 38 39 35 35 34 32 31 32 33 34 35 35 36 35 34 34 37 43 41 34 29 27 27 26 24 21 21 21 20 19 19 20 22 22 20 18 16 16 15 14 13 13 12 12 11 13 12 13 13 12 12 9 6 8 15 16 14 nan nan nan nan nan nan nan nan nan nan nan nan nan nan nan nan nan nan nan nan nan nan nan nan
40 37 35 41 45 40 35 32 32 31 33 33 33 33 33 33 34 33 33 34 34 39 45 43 35 28 27 26 24 23 22 22 22 21 20 21 22 22 19 17 16 16 15 14 14 13 13 11 13 11 11 12 13 13 11 9 7 7 13 15 14 nan nan nan nan nan nan nan nan nan nan nan nan nan nan nan nan nan nan nan nan nan nan nan nan
41 40 42 44 43 41 37 33 32 32 33 33 31 32 32 31 31 32 32 35 34 34 38 41 40 39 34 30 27 24 24 23 23 23 21 21 22 22 19 16 14 15 14 15 14 13 12 10 nan 11 12 11 13 12 11 9 7 6 10 nan nan nan nan nan nan nan nan nan nan nan nan nan nan nan nan nan nan nan nan nan nan nan nan nan nan
44 43 43 42 42 42 39 34 32 32 32 32 31 31 30 30 29 31 30 31 31 30 33 36 39 38 36 34 32 30 30 31 31 31 28 23 22 21 19 15 15 14 15 16 14 12 11 9 10 10 12 nan 11 12 11 10 8 6 6 nan nan nan nan nan nan nan nan nan nan nan nan nan nan nan nan nan nan nan nan nan nan nan nan nan nan
43 42 41 41 41 41 40 36 34 33 33 32 31 30 28 29 29 31 31 27 25 29 31 33 34 35 35 32 31 30 29 29 32 36 38 38 33 28 20 13 14 15 15 16 14 11 10 8 9 10 11 nan nan 13 12 10 10 8 5 9 nan nan 14 nan nan nan nan nan nan nan nan nan nan nan nan nan nan nan nan nan nan nan nan nan nan
39 37 37 39 42 42 40 36 34 34 34 32 30 31 31 30 30 31 28 23 23 27 30 30 31 32 31 31 31 29 28 27 31 35 39 42 38 31 28 21 14 15 16 16 14 11 9 9 9 10 12 nan 12 12 12 12 11 9 5 7 nan nan 12 nan nan nan nan nan nan nan nan nan nan nan nan nan nan nan nan nan nan nan nan nan nan
30 31 32 35 37 40 39 36 35 35 35 33 32 31 32 31 30 30 29 24 23 25 28 26 29 30 29 30 33 32 30 30 35 36 37 40 37 28 24 24 23 19 16 16 15 13 9 9 9 12 12 nan nan 12 13 14 12 10 7 7 6 8 nan nan nan nan nan nan nan nan nan nan nan nan nan nan nan nan nan nan nan nan nan nan nan
27 28 31 31 32 35 36 34 34 36 36 32 30 31 32 32 30 29 30 32 29 26 27 26 25 27 29 30 32 35 35 36 37 36 33 32 28 27 27 26 27 26 20 17 17 15 12 11 12 14 14 nan nan nan 12 15 15 13 11 9 8 5 8 12 nan nan nan nan nan nan nan nan nan nan nan nan nan nan nan nan nan nan nan nan nan
23 26 31 29 27 30 32 31 34 36 35 32 30 31 34 37 33 33 36 34 30 26 24 27 27 28 28 29 31 34 36 38 36 32 29 29 29 30 30 27 26 27 29 23 20 17 16 16 16 16 16 14 nan nan nan 17 13 11 11 9 7 7 7 8 9 nan nan nan nan nan nan nan nan nan nan nan nan nan nan nan nan nan nan nan nan
nan nan nan nan 27 26 26 28 31 35 35 34 32 32 37 39 35 26 24 23 27 26 24 26 32 32 31 31 32 34 37 38 35 31 31 30 29 33 32 27 25 25 27 26 23 19 18 17 17 16 17 17 14 14 nan nan nan 13 12 12 6 7 6 7 nan nan nan nan nan nan nan nan nan nan nan nan nan nan nan nan nan nan nan nan nan
21 nan nan nan 26 26 26 25 27 33 35 34 35 36 36 34 27 26 31 33 33 34 34 33 33 35 32 33 34 36 38 39 38 35 34 31 30 31 33 28 25 23 21 22 24 21 20 20 19 18 17 15 15 15 14 12 15 16 10 8 9 nan 5 0 5 nan nan nan nan nan nan nan nan nan nan nan nan nan nan nan nan nan nan nan nan
nan nan nan nan 25 nan nan 26 27 31 35 36 38 35 36 28 29 38 41 39 35 37 36 35 35 36 36 34 34 37 37 36 37 36 34 31 31 31 31 29 29 24 22 21 22 21 20 20 19 18 17 15 14 17 16 15 13 10 14 14 13 10 nan nan nan nan nan nan nan nan nan nan nan nan nan nan nan nan nan nan nan nan nan nan nan
nan nan nan nan nan nan nan nan 29 32 34 39 42 33 33 31 32 38 37 39 37 39 38 36 36 38 38 39 38 37 36 32 32 34 34 34 31 29 31 31 29 28 23 20 21 23 21 20 19 18 17 17 15 16 15 16 14 9 9 10 11 10 nan nan nan nan nan nan nan nan nan nan nan nan nan nan nan nan nan nan nan nan nan nan nan
nan nan nan nan nan nan nan nan nan 32 35 39 41 36 32 37 34 37 37 34 36 35 36 36 38 36 37 41 40 38 36 32 30 32 35 35 33 32 32 33 32 30 27 24 23 22 22 22 22 20 17 16 17 13 13 11 13 10 9 11 nan nan nan nan nan nan nan nan nan nan nan nan nan nan nan nan nan nan nan nan nan nan nan nan nan
nan nan nan nan nan nan nan nan nan nan 34 37 39 39 39 42 37 34 31 30 30 31 30 31 32 30 29 33 39 35 34 31 28 29 33 36 36 35 35 34 32 31 28 25 24 24 24 23 23 21 20 17 15 13 11 11 nan 8 10 8 nan nan nan nan nan nan nan nan nan nan nan nan nan nan nan nan nan nan nan nan nan nan nan nan nan
nan nan nan nan nan nan nan nan nan nan 34 35 36 38 43 43 38 36 34 33 34 34 31 30 31 32 32 35 34 35 34 32 29 27 31 36 38 37 36 34 33 31 28 26 25 24 21 22 23 24 21 19 16 nan nan nan nan nan nan nan 8 7 nan nan nan nan nan nan nan nan nan nan nan nan nan nan nan nan nan nan nan nan nan nan nan
nan nan nan nan nan nan nan nan nan nan nan 33 34 36 44 43 36 34 35 37 38 34 32 32 34 34 35 36 36 35 33 33 32 29 31 37 39 38 36 34 32 32 30 27 26 24 22 21 22 23 22 19 17 nan nan nan nan nan nan 12 nan nan 10 nan nan nan nan nan nan nan nan nan nan nan nan nan nan nan nan nan nan nan nan nan nan
nan nan nan nan nan nan nan nan nan nan nan 32 33 32 41 41 38 36 36 36 39 36 33 32 35 34 31 32 36 36 33 31 33 31 31 36 39 37 35 33 34 34 32 30 27 25 24 23 23 23 21 19 19 18 17 18 nan nan 16 13 9 8 7 nan nan nan nan nan nan nan nan nan nan nan nan nan nan nan nan nan nan nan nan nan nan
Wind_Direction
206 232 264 290 288 285 286 288 292 298 294 285 279 278 277 278 279 281 282 282 281 280 280 281 283 285 286 287 288 289 290 292 292 294 295 297 299 301 302 302 303 303 302 301 300 298 297 297 295 292 289 287 288 288 288 289 291 290 288 287 287 285 283 281 278 276 276 272 270 270 273 277 278 281 282 282 279 277 277 278 nan nan nan nan nan
327 324 308 305 306 298 293 290 291 294 294 293 288 283 280 279 280 282 283 284 282 281 281 282 283 284 286 288 289 290 292 293 293 294 296 298 300 301 302 303 303 303 302 301 300 299 300 298 296 292 289 287 287 287 289 291 291 290 291 292 290 288 285 282 279 276 274 272 272 273 273 276 279 nan 282 281 279 279 nan nan nan nan nan nan nan
328 341 330 320 317 309 300 293 291 291 290 292 292 288 284 281 282 282 282 282 282 282 283 283 285 286 287 288 289 290 292 294 295 296 296 298 300 302 303 303 303 303 302 300 299 299 299 299 297 294 291 289 288 289 290 290 289 290 293 293 291 291 288 284 280 278 276 nan 273 272 274 281 286 nan nan nan nan nan nan nan nan nan nan nan nan
322 340 335 328 327 320 310 301 293 291 291 293 294 292 289 285 284 284 282 282 284 283 285 286 287 288 288 289 288 290 292 294 296 296 297 298 300 302 303 303 304 303 301 300 300 299 299 299 297 294 292 290 290 291 291 292 292 295 297 296 294 294 290 285 nan nan nan nan nan nan nan nan nan nan nan nan nan nan nan nan nan nan nan nan nan
313 322 326 322 325 323 318 311 301 293 290 293 295 294 291 287 285 284 284 284 284 285 286 288 290 291 291 290 289 289 290 292 293 294 296 298 300 302 303 304 304 303 301 300 299 299 300 300 298 295 293 292 292 292 292 293 294 296 302 306 309 307 297 294 290 nan nan nan nan nan nan nan nan nan nan nan nan nan nan nan nan nan nan nan nan
315 314 314 312 316 316 316 313 308 300 290 290 294 294 292 288 286 284 284 284 285 286 287 289 291 292 292 291 291 291 290 290 290 291 293 296 300 302 303 304 303 303 301 298 298 298 299 298 297 296 294 293 292 291 290 291 292 296 302 308 305 309 323 323 302 nan nan nan nan nan nan nan nan nan nan nan nan nan nan nan nan nan nan nan nan
309 307 307 311 306 310 312 311 310 304 294 290 291 291 291 288 287 284 284 284 284 286 288 289 290 291 291 291 292 292 291 291 289 290 292 295 299 302 303 304 303 302 300 297 296 297 298 298 296 295 294 291 289 288 287 285 285 288 290 294 294 290 298 nan nan nan nan nan nan nan nan nan nan nan nan nan nan nan nan nan nan nan nan nan nan
300 300 303 307 302 309 310 311 309 304 297 294 292 292 291 288 286 286 285 283 282 284 287 289 290 290 290 291 293 293 292 292 291 291 292 295 296 301 304 304 302 301 299 297 296 297 298 298 296 294 293 289 286 287 285 282 278 280 291 294 nan nan nan nan nan nan nan nan nan nan nan nan nan nan nan nan nan nan nan nan nan nan nan nan nan
300 301 300 299 302 310 309 310 309 304 298 295 294 293 292 290 288 286 284 282 281 281 284 287 290 290 291 292 294 294 293 292 292 292 293 295 297 299 302 304 303 300 298 297 295 296 298 297 296 295 292 288 287 287 283 278 277 291 292 294 nan nan nan nan nan nan nan nan nan nan nan nan nan nan nan nan nan nan nan nan nan nan nan nan nan
298 295 294 293 297 306 307 306 305 303 298 292 291 292 292 290 287 285 284 283 280 281 282 286 288 290 291 293 294 295 294 292 291 293 295 296 298 301 303 304 302 300 298 296 295 295 297 297 296 294 290 287 286 282 279 274 279 nan nan nan nan nan nan nan nan nan nan nan nan nan nan nan nan nan nan nan nan nan nan nan nan nan nan nan nan
294 288 287 291 297 303 304 303 301 299 297 292 288 289 290 287 285 284 283 282 280 281 282 285 286 290 290 292 294 295 295 294 293 294 295 296 297 299 299 300 300 299 297 295 294 294 297 297 296 292 287 286 283 278 274 270 275 293 295 nan nan nan nan nan nan nan nan nan nan nan nan nan nan nan nan nan nan nan nan nan nan nan nan nan nan
293 284 282 282 300 301 302 300 299 297 294 290 286 286 286 285 284 283 281 281 280 281 283 284 287 289 289 290 293 296 298 296 296 294 294 294 295 295 296 298 298 296 295 294 292 293 294 296 295 291 288 285 280 274 272 268 275 nan nan nan nan nan nan nan nan nan nan nan nan nan nan nan nan nan nan nan nan nan nan nan nan nan nan nan nan
296 294 288 286 289 301 300 298 298 298 295 291 287 284 285 285 283 283 281 279 279 279 282 284 286 288 288 287 291 294 298 298 296 295 294 293 294 294 295 296 295 293 292 290 288 289 292 294 294 290 289 285 279 274 271 271 274 287 nan nan nan nan nan nan nan nan nan nan nan nan nan nan nan nan nan nan nan nan nan nan nan nan nan nan nan
301 304 302 296 291 304 302 300 299 299 297 292 286 280 280 279 278 278 279 278 277 277 279 281 284 287 288 289 289 292 294 296 295 295 294 293 293 293 293 293 294 294 291 287 285 286 290 292 291 290 288 284 278 274 271 270 272 282 nan nan nan nan nan nan nan nan nan nan nan nan nan nan nan nan nan nan nan nan nan nan nan nan nan nan nan
303 309 308 303 299 298 305 301 298 297 296 292 286 280 277 275 272 272 273 272 272 273 275 278 281 286 290 292 292 293 294 294 294 296 296 294 293 293 293 292 293 294 291 286 284 285 289 291 289 287 286 283 278 273 269 266 265 273 nan nan nan nan nan nan nan nan nan nan nan nan nan nan nan nan nan nan nan nan nan nan nan nan nan nan nan
296 294 297 298 297 296 296 302 299 295 293 290 285 279 276 274 270 267 267 267 267 269 271 272 278 283 288 291 293 296 297 296 296 296 295 295 294 295 293 293 294 294 292 288 285 286 289 290 289 287 286 283 279 276 268 262 259 260 294 nan nan nan nan nan nan nan nan nan nan nan nan nan nan nan nan nan nan nan nan nan nan nan nan nan nan
288 279 277 278 285 290 292 297 297 298 287 285 281 277 273 272 270 266 262 262 263 265 267 269 272 278 283 288 292 293 294 295 294 295 295 295 295 295 294 293 295 295 294 290 286 285 288 289 288 287 287 284 281 275 268 266 261 264 297 nan nan nan nan nan nan nan nan nan nan nan nan nan nan nan nan nan nan nan nan nan nan nan nan nan nan
288 284 281 282 280 283 286 288 292 283 276 276 278 276 273 273 272 269 264 261 261 263 264 267 269 275 284 288 290 294 294 293 294 294 294 293 294 294 294 293 294 295 294 291 287 286 287 286 286 287 286 283 278 273 270 265 262 270 nan nan nan nan nan nan nan nan nan nan nan nan nan nan nan nan nan nan nan nan nan nan nan nan nan nan nan
274 274 280 287 282 277 280 283 281 279 273 262 262 270 278 277 274 271 269 266 262 263 265 267 272 277 284 288 291 295 294 296 295 295 293 293 293 294 294 293 292 292 293 290 286 287 288 285 287 287 285 280 274 270 267 265 260 281 nan nan nan nan nan nan nan nan nan nan nan nan nan nan nan nan nan nan nan nan nan nan nan nan nan nan nan
272 276 277 277 279 274 269 274 276 279 270 259 261 262 273 279 277 274 272 270 268 265 267 270 275 279 286 290 293 289 292 291 297 291 295 295 294 291 294 292 292 291 290 289 287 285 286 287 288 286 282 278 272 270 269 269 265 282 nan nan nan nan nan nan nan nan nan nan nan nan nan nan nan nan nan nan nan nan nan nan nan nan nan nan nan
275 278 281 275 271 269 269 264 266 269 263 256 259 264 269 278 277 279 277 274 271 270 268 272 274 276 280 287 289 277 272 278 286 279 295 285 292 295 293 292 291 289 288 287 285 283 284 286 289 283 280 276 274 272 270 269 268 282 nan nan nan nan nan nan nan nan nan nan nan nan nan nan nan nan nan nan nan nan nan nan nan nan nan nan nan
269 269 270 276 270 267 267 263 262 262 257 252 256 266 271 274 269 270 267 269 271 270 264 259 262 257 277 274 265 268 270 274 276 289 277 285 289 295 292 290 289 288 285 284 282 279 281 283 285 280 274 272 270 263 265 270 270 284 nan nan nan nan nan nan nan nan nan nan nan nan nan nan nan nan nan nan nan nan nan nan nan nan nan nan nan
263 264 268 272 272 271 270 268 266 261 258 259 263 269 274 269 268 270 270 273 268 264 260 263 257 259 257 259 260 262 269 273 279 284 280 292 287 294 291 288 288 288 284 282 280 281 281 283 282 275 271 269 257 259 259 264 268 279 nan nan nan nan nan nan nan nan nan nan nan nan nan nan nan nan nan nan nan nan nan nan nan nan nan nan nan
274 277 276 272 275 275 276 275 272 267 263 265 271 273 269 265 264 266 268 267 266 262 261 261 260 261 258 259 262 265 269 274 293 302 296 281 284 291 289 287 288 287 286 275 278 277 281 282 276 273 263 253 255 257 259 259 265 nan nan nan nan nan nan nan nan nan nan nan nan nan nan nan nan nan nan nan nan nan nan nan nan nan nan nan nan
277 276 268 275 279 278 274 273 273 267 256 257 269 270 264 261 259 261 263 263 262 260 259 258 260 261 259 260 264 266 272 276 272 276 277 277 275 272 270 268 266 265 279 257 259 262 266 257 254 254 243 253 255 257 264 265 264 nan nan nan nan nan nan nan nan nan nan nan nan nan nan nan nan nan nan nan nan nan nan nan nan nan nan nan nan
277 274 273 282 283 278 274 270 270 269 257 244 245 255 256 255 256 256 259 260 260 259 256 256 256 258 256 257 261 266 272 274 268 271 277 280 278 273 267 265 262 260 259 262 257 257 257 256 254 252 247 247 256 257 269 273 269 277 nan nan nan nan nan nan nan nan nan nan nan nan nan nan nan nan nan nan nan nan nan nan nan nan nan nan nan
277 275 268 268 268 268 267 265 260 254 252 249 242 236 239 246 248 250 256 258 258 258 255 252 252 252 252 253 258 261 266 269 266 267 277 279 279 275 271 267 264 258 258 263 262 259 261 262 257 254 248 247 250 258 270 270 269 281 nan nan nan nan nan nan nan nan nan nan nan nan nan nan nan nan nan nan nan nan nan nan nan nan nan nan nan
266 261 260 261 261 261 264 265 262 259 251 244 238 235 237 242 245 248 251 256 258 258 255 251 248 249 248 248 249 254 261 265 262 265 274 276 277 275 271 269 266 262 261 265 265 264 264 261 260 256 254 250 250 259 268 271 270 nan nan nan nan nan nan nan nan nan nan nan nan nan nan nan nan nan nan nan nan nan nan nan nan nan nan nan nan
260 258 257 256 254 256 262 264 264 265 265 266 265 256 240 232 234 241 245 254 254 255 254 251 248 245 244 245 244 248 252 258 259 262 268 275 272 271 273 274 272 271 270 269 267 269 269 267 267 266 260 251 250 261 265 268 273 nan nan nan nan nan nan nan nan nan nan nan nan nan nan nan nan nan nan nan nan nan nan nan nan nan nan nan nan
255 253 255 253 251 251 254 259 261 260 261 262 263 265 266 256 246 240 240 246 247 249 249 249 247 244 241 239 241 243 247 255 255 256 265 269 267 267 271 276 281 280 278 279 274 272 276 270 267 267 268 262 257 263 267 269 274 279 282 nan nan nan nan nan nan nan nan nan nan nan nan nan nan nan nan nan nan nan nan nan nan nan nan nan nan
261 257 257 259 259 260 259 260 262 262 258 260 260 258 259 262 258 255 251 245 241 241 241 242 245 242 237 234 234 237 242 248 254 257 260 262 264 266 270 274 278 280 280 280 274 276 271 272 274 274 271 269 267 266 272 271 274 280 285 293 299 nan nan nan nan nan nan nan nan nan nan nan nan nan nan nan nan nan nan nan nan nan nan nan nan
270 269 267 265 266 270 271 267 266 265 262 262 261 258 257 259 259 261 262 251 238 233 233 234 239 239 235 232 229 231 234 240 249 254 258 261 262 264 265 271 275 273 274 272 273 272 269 267 267 267 268 268 267 265 268 272 275 283 290 295 296 nan nan nan nan nan nan nan nan nan nan nan nan nan nan nan nan nan nan nan nan nan nan nan nan
266 268 268 267 268 271 272 270 267 265 266 265 262 260 259 261 262 263 259 250 240 229 226 227 231 236 235 234 231 229 228 233 238 244 252 258 261 263 264 267 269 267 267 269 269 264 257 255 256 256 259 258 261 263 260 265 274 284 291 297 300 nan nan nan nan nan nan nan nan nan nan nan nan nan nan nan nan nan nan nan nan nan nan nan nan
260 263 263 267 262 256 256 265 270 271 269 265 263 260 264 265 266 264 248 238 240 236 229 222 223 230 236 237 238 234 230 229 231 233 240 250 257 261 263 263 262 258 259 260 261 259 257 256 255 256 257 262 263 265 266 268 276 281 289 297 302 nan nan nan nan nan nan nan nan nan nan nan nan nan nan nan nan nan nan nan nan nan nan nan nan
259 261 264 256 254 257 256 257 265 263 261 262 264 262 265 266 269 269 252 236 237 238 235 226 217 221 232 237 241 242 240 236 232 231 230 239 249 256 260 258 255 251 252 252 253 252 252 253 254 254 249 252 259 262 272 276 280 283 283 293 303 nan nan nan nan nan nan nan nan nan nan nan nan nan nan nan nan nan nan nan nan nan nan nan nan
257 253 252 256 258 259 260 259 256 257 261 262 262 263 267 267 268 274 264 249 239 237 239 238 227 217 219 231 239 242 246 248 249 244 233 232 240 250 255 253 249 243 242 244 244 245 243 241 nan 254 250 245 256 263 267 272 269 267 271 nan nan nan nan nan nan nan nan nan nan nan nan nan nan nan nan nan nan nan nan nan nan nan nan nan nan
259 256 255 257 263 264 264 262 260 256 255 258 262 261 264 269 268 277 281 263 244 236 236 238 238 234 223 224 229 239 243 244 248 249 244 237 234 239 243 245 242 236 237 238 240 240 242 234 236 243 255 nan 258 263 258 263 259 250 258 nan nan nan nan nan nan nan nan nan nan nan nan nan nan nan nan nan nan nan nan nan nan nan nan nan nan
258 260 261 261 261 266 268 268 264 261 256 254 259 259 258 262 260 267 279 273 250 238 237 239 241 242 240 234 228 229 239 248 250 253 254 246 230 218 219 235 235 229 229 236 237 233 236 233 233 232 249 nan nan 255 257 253 251 245 242 268 nan nan 314 nan nan nan nan nan nan nan nan nan nan nan nan nan nan nan nan nan nan nan nan nan nan
256 258 259 257 257 261 266 266 266 264 264 260 257 258 257 255 257 264 272 282 266 248 243 241 242 244 246 247 243 236 232 237 247 253 254 255 249 230 202 195 223 232 224 231 232 225 227 227 234 229 229 nan 253 250 259 257 250 247 247 262 nan nan 311 nan nan nan nan nan nan nan nan nan nan nan nan nan nan nan nan nan nan nan nan nan nan
261 261 258 258 257 258 262 264 262 262 261 262 261 258 260 263 266 261 263 275 279 264 253 249 244 243 245 250 250 248 244 243 245 246 251 254 253 238 216 197 198 214 226 224 224 218 219 226 224 233 233 nan nan 242 249 255 245 250 254 244 267 302 nan nan nan nan nan nan nan nan nan nan nan nan nan nan nan nan nan nan nan nan nan nan nan
258 256 255 257 261 263 260 259 260 262 263 262 262 262 260 256 254 261 262 263 272 271 260 253 248 243 245 246 248 249 250 250 249 251 249 245 244 236 224 211 205 200 208 219 222 215 207 221 227 221 231 nan nan nan 236 253 253 232 223 232 241 255 314 312 nan nan nan nan nan nan nan nan nan nan nan nan nan nan nan nan nan nan nan nan nan
248 251 250 252 258 261 265 260 257 260 261 261 259 259 263 256 251 246 245 246 258 267 266 258 255 250 245 244 247 250 252 255 253 250 244 238 234 231 226 218 213 205 195 211 221 213 207 207 221 216 212 228 nan nan nan 243 240 257 253 234 228 217 259 294 307 nan nan nan nan nan nan nan nan nan nan nan nan nan nan nan nan nan nan nan nan
nan nan nan nan 251 251 258 262 255 256 259 259 256 255 253 255 252 253 266 260 252 253 256 261 259 258 252 246 247 250 253 253 249 244 238 231 226 229 225 220 217 214 204 196 216 214 211 211 215 222 210 204 210 216 nan nan nan 236 248 257 249 258 216 235 nan nan nan nan nan nan nan nan nan nan nan nan nan nan nan nan nan nan nan nan nan
254 nan nan nan 256 250 247 256 258 252 254 257 254 252 254 248 259 255 245 243 240 242 247 250 253 255 255 250 245 248 253 251 245 240 238 235 232 230 226 217 210 215 212 202 203 217 217 213 211 210 220 208 205 204 213 228 237 255 246 245 252 nan 252 218 267 nan nan nan nan nan nan nan nan nan nan nan nan nan nan nan nan nan nan nan nan
nan nan nan nan 258 nan nan 249 254 254 251 252 254 244 250 246 245 243 244 247 243 242 240 243 249 250 249 248 249 250 252 252 249 245 241 238 236 233 230 220 212 208 214 209 206 216 222 224 223 216 212 215 201 207 204 211 228 255 257 245 239 245 nan nan nan nan nan nan nan nan nan nan nan nan nan nan nan nan nan nan nan nan nan nan nan
nan nan nan nan nan nan nan nan 247 252 250 248 256 255 252 251 242 242 239 239 242 240 239 235 243 250 251 244 241 244 245 252 254 248 239 236 236 232 229 229 220 212 210 216 217 219 224 227 228 225 216 210 216 214 210 209 210 220 246 264 267 266 nan nan nan nan nan nan nan nan nan nan nan nan nan nan nan nan nan nan nan nan nan nan nan
nan nan nan nan nan nan nan nan nan 245 250 250 256 256 252 248 245 242 245 250 246 241 239 237 233 233 242 245 244 243 244 248 252 247 238 234 234 229 225 226 226 218 207 209 220 225 226 229 231 230 226 220 218 218 222 225 215 200 215 219 nan nan nan nan nan nan nan nan nan nan nan nan nan nan nan nan nan nan nan nan nan nan nan nan nan
nan nan nan nan nan nan nan nan nan nan 247 254 253 253 250 249 250 250 251 246 245 248 251 248 250 248 247 250 251 248 245 246 248 246 238 232 230 227 224 224 227 225 216 207 215 224 228 230 235 236 234 230 226 225 230 240 nan 233 233 229 nan nan nan nan nan nan nan nan nan nan nan nan nan nan nan nan nan nan nan nan nan nan nan nan nan
nan nan nan nan nan nan nan nan nan nan 244 253 254 253 250 244 242 244 248 247 246 242 238 249 259 255 253 251 255 255 251 246 245 247 241 232 226 223 221 220 223 225 223 216 216 225 233 238 240 239 237 232 230 nan nan nan nan nan nan nan 226 227 nan nan nan nan nan nan nan nan nan nan nan nan nan nan nan nan nan nan nan nan nan nan nan
nan nan nan nan nan nan nan nan nan nan nan 249 251 252 253 253 245 238 240 243 247 245 245 242 238 244 254 253 252 254 254 250 245 247 246 233 224 222 218 217 220 221 221 222 224 227 230 235 244 247 247 245 237 nan nan nan nan nan nan 250 nan nan 222 nan nan nan nan nan nan nan nan nan nan nan nan nan nan nan nan nan nan nan nan nan nan
nan nan nan nan nan nan nan nan nan nan nan 245 250 247 253 255 248 241 240 240 245 246 243 240 242 241 249 251 250 249 251 254 251 251 250 235 224 223 220 218 219 220 221 224 225 229 232 234 236 244 252 254 245 240 232 231 nan nan 239 242 240 239 245 nan nan nan nan nan nan nan nan nan nan nan nan nan nan nan nan nan nan nan nan nan nan